﻿測定場所 (Monitoring sites),日付 (Measurement date),時間 (Measurement time),線量率 最大値 (max) μGy/h,線量率 最小値 (min) μGy/h,線量率 平均値 (average) μGy/h,
江戸川 (Edogawa),2017-02-05,23:01～24:00,0.0575,0.0507,0.0539,
江戸川 (Edogawa),2017-02-05,22:01～23:00,0.0580,0.0506,0.0543,
江戸川 (Edogawa),2017-02-05,21:01～22:00,0.0592,0.0506,0.0544,
江戸川 (Edogawa),2017-02-05,20:01～21:00,0.0568,0.0515,0.0545,
江戸川 (Edogawa),2017-02-05,19:01～20:00,0.0577,0.0507,0.0549,
江戸川 (Edogawa),2017-02-05,18:01～19:00,0.0583,0.0513,0.0550,
江戸川 (Edogawa),2017-02-05,17:01～18:00,0.0592,0.0532,0.0564,
江戸川 (Edogawa),2017-02-05,16:01～17:00,0.0595,0.0520,0.0555,
江戸川 (Edogawa),2017-02-05,15:01～16:00,0.0594,0.0524,0.0553,
江戸川 (Edogawa),2017-02-05,14:01～15:00,0.0590,0.0532,0.0566,
江戸川 (Edogawa),2017-02-05,13:01～14:00,0.0608,0.0529,0.0566,
江戸川 (Edogawa),2017-02-05,12:01～13:00,0.0578,0.0517,0.0546,
江戸川 (Edogawa),2017-02-05,11:01～12:00,0.0585,0.0514,0.0544,
江戸川 (Edogawa),2017-02-05,10:01～11:00,0.0583,0.0510,0.0548,
江戸川 (Edogawa),2017-02-05,09:01～10:00,0.0573,0.0518,0.0547,
江戸川 (Edogawa),2017-02-05,08:01～09:00,0.0586,0.0513,0.0547,
江戸川 (Edogawa),2017-02-05,07:01～08:00,0.0571,0.0518,0.0546,
江戸川 (Edogawa),2017-02-05,06:01～07:00,0.0583,0.0517,0.0547,
江戸川 (Edogawa),2017-02-05,05:01～06:00,0.0572,0.0498,0.0543,
江戸川 (Edogawa),2017-02-05,04:01～05:00,0.0576,0.0522,0.0546,
江戸川 (Edogawa),2017-02-05,03:01～04:00,0.0579,0.0522,0.0548,
江戸川 (Edogawa),2017-02-05,02:01～03:00,0.0585,0.0501,0.0537,
江戸川 (Edogawa),2017-02-05,01:01～02:00,0.0578,0.0510,0.0541,
江戸川 (Edogawa),2017-02-05,00:01～01:00,0.0579,0.0508,0.0540,
江戸川 (Edogawa),2017-02-04,23:01～24:00,0.0575,0.0514,0.0539,
江戸川 (Edogawa),2017-02-04,22:01～23:00,0.0563,0.0511,0.0535,
江戸川 (Edogawa),2017-02-04,21:01～22:00,0.0584,0.0505,0.0538,
江戸川 (Edogawa),2017-02-04,20:01～21:00,0.0567,0.0500,0.0537,
江戸川 (Edogawa),2017-02-04,19:01～20:00,0.0568,0.0498,0.0537,
江戸川 (Edogawa),2017-02-04,18:01～19:00,0.0569,0.0507,0.0540,
江戸川 (Edogawa),2017-02-04,17:01～18:00,0.0567,0.0513,0.0539,
江戸川 (Edogawa),2017-02-04,16:01～17:00,0.0572,0.0508,0.0543,
江戸川 (Edogawa),2017-02-04,15:01～16:00,0.0590,0.0508,0.0544,
江戸川 (Edogawa),2017-02-04,14:01～15:00,0.0567,0.0521,0.0546,
江戸川 (Edogawa),2017-02-04,13:01～14:00,0.0575,0.0511,0.0543,
江戸川 (Edogawa),2017-02-04,12:01～13:00,0.0589,0.0517,0.0545,
江戸川 (Edogawa),2017-02-04,11:01～12:00,0.0588,0.0505,0.0543,
江戸川 (Edogawa),2017-02-04,10:01～11:00,0.0573,0.0501,0.0536,
江戸川 (Edogawa),2017-02-04,09:01～10:00,0.0560,0.0508,0.0536,
江戸川 (Edogawa),2017-02-04,08:01～09:00,0.0571,0.0502,0.0535,
江戸川 (Edogawa),2017-02-04,07:01～08:00,0.0563,0.0505,0.0532,
江戸川 (Edogawa),2017-02-04,06:01～07:00,0.0563,0.0499,0.0532,
江戸川 (Edogawa),2017-02-04,05:01～06:00,0.0574,0.0499,0.0531,
江戸川 (Edogawa),2017-02-04,04:01～05:00,0.0556,0.0499,0.0529,
江戸川 (Edogawa),2017-02-04,03:01～04:00,0.0582,0.0497,0.0533,
江戸川 (Edogawa),2017-02-04,02:01～03:00,0.0560,0.0508,0.0534,
江戸川 (Edogawa),2017-02-04,01:01～02:00,0.0557,0.0501,0.0530,
江戸川 (Edogawa),2017-02-04,00:01～01:00,0.0565,0.0511,0.0534,
江戸川 (Edogawa),2017-02-03,23:01～24:00,0.0565,0.0507,0.0537,
江戸川 (Edogawa),2017-02-03,22:01～23:00,0.0573,0.0508,0.0534,
江戸川 (Edogawa),2017-02-03,21:01～22:00,0.0569,0.0509,0.0534,
江戸川 (Edogawa),2017-02-03,20:01～21:00,0.0589,0.0500,0.0532,
江戸川 (Edogawa),2017-02-03,19:01～20:00,0.0557,0.0504,0.0534,
江戸川 (Edogawa),2017-02-03,18:01～19:00,0.0562,0.0500,0.0535,
江戸川 (Edogawa),2017-02-03,17:01～18:00,0.0570,0.0507,0.0536,
江戸川 (Edogawa),2017-02-03,16:01～17:00,0.0577,0.0497,0.0539,
江戸川 (Edogawa),2017-02-03,15:01～16:00,0.0568,0.0504,0.0539,
江戸川 (Edogawa),2017-02-03,14:01～15:00,0.0578,0.0514,0.0544,
江戸川 (Edogawa),2017-02-03,13:01～14:00,0.0579,0.0498,0.0544,
江戸川 (Edogawa),2017-02-03,12:01～13:00,0.0571,0.0496,0.0540,
江戸川 (Edogawa),2017-02-03,11:01～12:00,0.0576,0.0510,0.0541,
江戸川 (Edogawa),2017-02-03,10:01～11:00,0.0571,0.0493,0.0536,
江戸川 (Edogawa),2017-02-03,09:01～10:00,0.0564,0.0500,0.0538,
江戸川 (Edogawa),2017-02-03,08:01～09:00,0.0566,0.0498,0.0535,
江戸川 (Edogawa),2017-02-03,07:01～08:00,0.0566,0.0499,0.0530,
江戸川 (Edogawa),2017-02-03,06:01～07:00,0.0565,0.0499,0.0531,
江戸川 (Edogawa),2017-02-03,05:01～06:00,0.0569,0.0503,0.0531,
江戸川 (Edogawa),2017-02-03,04:01～05:00,0.0561,0.0503,0.0532,
江戸川 (Edogawa),2017-02-03,03:01～04:00,0.0562,0.0492,0.0530,
江戸川 (Edogawa),2017-02-03,02:01～03:00,0.0567,0.0509,0.0529,
江戸川 (Edogawa),2017-02-03,01:01～02:00,0.0570,0.0507,0.0532,
江戸川 (Edogawa),2017-02-03,00:01～01:00,0.0559,0.0502,0.0528,
江戸川 (Edogawa),2017-02-02,23:01～24:00,0.0550,0.0504,0.0526,
江戸川 (Edogawa),2017-02-02,22:01～23:00,0.0559,0.0485,0.0528,
江戸川 (Edogawa),2017-02-02,21:01～22:00,0.0556,0.0509,0.0530,
江戸川 (Edogawa),2017-02-02,20:01～21:00,0.0563,0.0501,0.0533,
江戸川 (Edogawa),2017-02-02,19:01～20:00,0.0569,0.0491,0.0535,
江戸川 (Edogawa),2017-02-02,18:01～19:00,0.0564,0.0493,0.0527,
江戸川 (Edogawa),2017-02-02,17:01～18:00,0.0565,0.0496,0.0531,
江戸川 (Edogawa),2017-02-02,16:01～17:00,0.0575,0.0506,0.0536,
江戸川 (Edogawa),2017-02-02,15:01～16:00,0.0564,0.0504,0.0535,
江戸川 (Edogawa),2017-02-02,14:01～15:00,0.0568,0.0508,0.0539,
江戸川 (Edogawa),2017-02-02,13:01～14:00,0.0572,0.0507,0.0540,
江戸川 (Edogawa),2017-02-02,12:01～13:00,0.0565,0.0507,0.0538,
江戸川 (Edogawa),2017-02-02,11:01～12:00,0.0563,0.0502,0.0533,
江戸川 (Edogawa),2017-02-02,10:01～11:00,0.0567,0.0509,0.0538,
江戸川 (Edogawa),2017-02-02,09:01～10:00,0.0574,0.0511,0.0538,
江戸川 (Edogawa),2017-02-02,08:01～09:00,0.0560,0.0501,0.0535,
江戸川 (Edogawa),2017-02-02,07:01～08:00,0.0575,0.0501,0.0533,
江戸川 (Edogawa),2017-02-02,06:01～07:00,0.0579,0.0503,0.0536,
江戸川 (Edogawa),2017-02-02,05:01～06:00,0.0570,0.0507,0.0536,
江戸川 (Edogawa),2017-02-02,04:01～05:00,0.0558,0.0502,0.0535,
江戸川 (Edogawa),2017-02-02,03:01～04:00,0.0569,0.0498,0.0537,
江戸川 (Edogawa),2017-02-02,02:01～03:00,0.0564,0.0507,0.0539,
江戸川 (Edogawa),2017-02-02,01:01～02:00,0.0571,0.0504,0.0539,
江戸川 (Edogawa),2017-02-02,00:01～01:00,0.0574,0.0502,0.0541,
江戸川 (Edogawa),2017-02-01,23:01～24:00,0.0580,0.0508,0.0544,
江戸川 (Edogawa),2017-02-01,22:01～23:00,0.0575,0.0508,0.0542,
江戸川 (Edogawa),2017-02-01,21:01～22:00,0.0570,0.0505,0.0539,
江戸川 (Edogawa),2017-02-01,20:01～21:00,0.0564,0.0510,0.0539,
江戸川 (Edogawa),2017-02-01,19:01～20:00,0.0577,0.0500,0.0538,
江戸川 (Edogawa),2017-02-01,18:01～19:00,0.0564,0.0492,0.0538,
江戸川 (Edogawa),2017-02-01,17:01～18:00,0.0570,0.0511,0.0541,
江戸川 (Edogawa),2017-02-01,16:01～17:00,0.0583,0.0511,0.0543,
江戸川 (Edogawa),2017-02-01,15:01～16:00,0.0570,0.0495,0.0540,
江戸川 (Edogawa),2017-02-01,14:01～15:00,0.0575,0.0513,0.0544,
江戸川 (Edogawa),2017-02-01,13:01～14:00,0.0576,0.0515,0.0545,
江戸川 (Edogawa),2017-02-01,12:01～13:00,0.0590,0.0526,0.0555,
江戸川 (Edogawa),2017-02-01,11:01～12:00,0.0582,0.0515,0.0548,
江戸川 (Edogawa),2017-02-01,10:01～11:00,0.0580,0.0508,0.0542,
江戸川 (Edogawa),2017-02-01,09:01～10:00,0.0575,0.0505,0.0540,
江戸川 (Edogawa),2017-02-01,08:01～09:00,0.0579,0.0494,0.0537,
江戸川 (Edogawa),2017-02-01,07:01～08:00,0.0565,0.0499,0.0536,
江戸川 (Edogawa),2017-02-01,06:01～07:00,0.0576,0.0507,0.0535,
江戸川 (Edogawa),2017-02-01,05:01～06:00,0.0556,0.0506,0.0532,
江戸川 (Edogawa),2017-02-01,04:01～05:00,0.0573,0.0503,0.0531,
江戸川 (Edogawa),2017-02-01,03:01～04:00,0.0572,0.0502,0.0534,
江戸川 (Edogawa),2017-02-01,02:01～03:00,0.0574,0.0499,0.0532,
江戸川 (Edogawa),2017-02-01,01:01～02:00,0.0568,0.0508,0.0534,
江戸川 (Edogawa),2017-02-01,00:01～01:00,0.0575,0.0500,0.0533,
江戸川 (Edogawa),2017-01-31,23:01～24:00,0.0555,0.0499,0.0535,
江戸川 (Edogawa),2017-01-31,22:01～23:00,0.0575,0.0500,0.0534,
江戸川 (Edogawa),2017-01-31,21:01～22:00,0.0558,0.0506,0.0531,
江戸川 (Edogawa),2017-01-31,20:01～21:00,0.0552,0.0488,0.0527,
江戸川 (Edogawa),2017-01-31,19:01～20:00,0.0564,0.0490,0.0529,
江戸川 (Edogawa),2017-01-31,18:01～19:00,0.0570,0.0498,0.0532,
江戸川 (Edogawa),2017-01-31,17:01～18:00,0.0560,0.0483,0.0530,
江戸川 (Edogawa),2017-01-31,16:01～17:00,0.0556,0.0500,0.0531,
江戸川 (Edogawa),2017-01-31,15:01～16:00,0.0568,0.0504,0.0538,
江戸川 (Edogawa),2017-01-31,14:01～15:00,0.0577,0.0490,0.0532,
江戸川 (Edogawa),2017-01-31,13:01～14:00,0.0567,0.0510,0.0532,
江戸川 (Edogawa),2017-01-31,12:01～13:00,0.0561,0.0504,0.0535,
江戸川 (Edogawa),2017-01-31,11:01～12:00,0.0572,0.0496,0.0532,
江戸川 (Edogawa),2017-01-31,10:01～11:00,0.0555,0.0500,0.0531,
江戸川 (Edogawa),2017-01-31,09:01～10:00,0.0579,0.0499,0.0530,
江戸川 (Edogawa),2017-01-31,08:01～09:00,0.0574,0.0501,0.0528,
江戸川 (Edogawa),2017-01-31,07:01～08:00,0.0555,0.0497,0.0526,
江戸川 (Edogawa),2017-01-31,06:01～07:00,0.0565,0.0501,0.0530,
江戸川 (Edogawa),2017-01-31,05:01～06:00,0.0567,0.0500,0.0532,
江戸川 (Edogawa),2017-01-31,04:01～05:00,0.0561,0.0501,0.0534,
江戸川 (Edogawa),2017-01-31,03:01～04:00,0.0564,0.0492,0.0538,
江戸川 (Edogawa),2017-01-31,02:01～03:00,0.0561,0.0500,0.0538,
江戸川 (Edogawa),2017-01-31,01:01～02:00,0.0590,0.0509,0.0543,
江戸川 (Edogawa),2017-01-31,00:01～01:00,0.0571,0.0504,0.0538,
江戸川 (Edogawa),2017-01-30,23:01～24:00,0.0569,0.0503,0.0537,
江戸川 (Edogawa),2017-01-30,22:01～23:00,0.0578,0.0508,0.0536,
江戸川 (Edogawa),2017-01-30,21:01～22:00,0.0568,0.0493,0.0538,
江戸川 (Edogawa),2017-01-30,20:01～21:00,0.0571,0.0503,0.0536,
江戸川 (Edogawa),2017-01-30,19:01～20:00,0.0582,0.0491,0.0539,
江戸川 (Edogawa),2017-01-30,18:01～19:00,0.0570,0.0501,0.0535,
江戸川 (Edogawa),2017-01-30,17:01～18:00,0.0579,0.0510,0.0539,
江戸川 (Edogawa),2017-01-30,16:01～17:00,0.0578,0.0510,0.0546,
江戸川 (Edogawa),2017-01-30,15:01～16:00,0.0594,0.0510,0.0550,
江戸川 (Edogawa),2017-01-30,14:01～15:00,0.0603,0.0502,0.0554,
江戸川 (Edogawa),2017-01-30,13:01～14:00,0.0577,0.0518,0.0554,
江戸川 (Edogawa),2017-01-30,12:01～13:00,0.0586,0.0526,0.0557,
江戸川 (Edogawa),2017-01-30,11:01～12:00,0.0586,0.0529,0.0554,
江戸川 (Edogawa),2017-01-30,10:01～11:00,0.0584,0.0508,0.0545,
江戸川 (Edogawa),2017-01-30,09:01～10:00,0.0580,0.0513,0.0545,
江戸川 (Edogawa),2017-01-30,08:01～09:00,0.0571,0.0511,0.0539,
江戸川 (Edogawa),2017-01-30,07:01～08:00,0.0575,0.0512,0.0542,
江戸川 (Edogawa),2017-01-30,06:01～07:00,0.0574,0.0495,0.0542,
江戸川 (Edogawa),2017-01-30,05:01～06:00,0.0581,0.0514,0.0543,
江戸川 (Edogawa),2017-01-30,04:01～05:00,0.0558,0.0505,0.0537,
江戸川 (Edogawa),2017-01-30,03:01～04:00,0.0575,0.0501,0.0539,
江戸川 (Edogawa),2017-01-30,02:01～03:00,0.0592,0.0509,0.0554,
江戸川 (Edogawa),2017-01-30,01:01～02:00,0.0599,0.0518,0.0552,
江戸川 (Edogawa),2017-01-30,00:01～01:00,0.0565,0.0497,0.0536,
